Location: Lhota
(50.0887°N, 14.0116°E)
Time: 19:26:28
(UTC+00:00)

Meteor 1-11 Rocket - Pass Details

Date: 19 May 2025
Orbit: 830 x 915 km, 81.2° (Epoch: 20 June)

Event Time Altitude Azimuth Distance (km) Brightness Sun altitude
Rises 20:59:42 0° 350° (N) 3,390 8.3 -15.0°
Reaches altitude 10° 21:02:11 10° 354° (N) 2,449 7.2 -15.2°
Maximum altitude 21:07:37 57° 73° (ENE) 981 4.0 -15.6°
Enters shadow 21:10:48 25° 143° (SE) 1,641 4.6 -15.9°
